[[{"header":{"parameterUnit":"m.s-1","parameterCategory":1,"la1":30.2991,"la2":30.254,"lo1":-89.0895,"lo2":-89.0444,"dy":0.0017,"dx":0.0017,"nx":28,"ny":28,"refTime":"2024-11-26T03:00:00:Z","depth":0,"parameterNumber":2,"parameterNumberName":"U-component_of_WINDS"},"data":[0,0,0,0,0,0,0,0,0,0,0,0,0,0,0,0,0,0,0,0,0,0,0,0,0,0,0,0,0,0,0,0,0,0,0,0,0,0,0,0,0,0,0,0,0,0,0,0,0,0,0,0,0,0,0,0,0,0,1.7073,1.7075,0,1.726,1.7262,1.7264,1.7264,1.7261,1.7259,1.7257,1.745,1.7458,1.7465,0,0,0,0,0,0,0,0,0,0,0,0,0,1.6722,1.6728,1.7073,1.7075,1.7078,1.7259,1.7262,1.7264,1.7264,1.7261,1.7258,1.7256,1.7448,1.7457,1.7466,0,0,0,0,0,0,0,0,0,0,0,0,0,1.6888,1.673,1.7073,1.7099,1.7104,1.7259,1.7262,1.7265,1.7265,1.7261,1.7258,1.7254,1.7445,1.7456,1.7467,1.7608,0,0,1.7501,1.7506,0,0,0,0,0,0,0,0,1.6879,1.6901,1.7093,1.7098,1.7103,1.7235,1.7209,1.738,1.7266,1.7204,1.7257,1.7252,1.7382,1.7398,1.7441,1.7617,1.7626,1.7502,1.7509,1.7513,1.7516,0,0,0,0,0,0,0,1.6867,1.6893,1.7147,1.7096,1.7102,1.7104,1.7123,1.7241,1.7311,1.7209,1.7209,1.7231,1.7384,1.743,1.7445,1.7628,1.7501,1.7511,1.7518,1.7523,1.7936,1.794,0,0,0,0,0,0,1.685,1.6883,1.7141,1.7152,1.6979,1.7113,1.7135,1.7196,1.731,1.7323,1.7234,1.7231,1.7413,1.7432,1.7452,1.7629,1.7513,1.7524,1.753,1.7931,1.7937,1.7941,0,0,0,0,0,0,1.6842,1.6872,1.7133,1.7018,1.7051,1.7123,1.7192,1.7202,1.7248,1.7329,1.7341,1.7269,1.7411,1.7437,1.757,1.7636,1.7529,1.7539,1.7926,1.7933,1.7939,1.7981,0,0,0,0,0,0,1.6832,1.687,1.6923,1.7019,1.7058,1.7247,1.7195,1.7208,1.7267,1.7264,1.7364,1.7378,1.741,1.7554,1.7582,1.7649,1.7547,1.7921,1.7929,1.7937,1.7974,1.7988,1.8,0,0,0,0,0,1.6819,1.6927,1.6925,1.6956,1.7125,1.7251,1.7273,1.7307,1.7272,1.7327,1.738,1.7374,1.7623,1.7568,1.7599,1.767,1.7917,1.7927,1.7936,1.7968,1.7985,1.8,0,0,0,0,0,0,1.6836,1.694,1.6939,1.7081,1.7157,1.725,1.7321,1.7323,1.7411,1.7405,1.7445,1.7467,1.7602,1.7649,1.7585,1.7816,1.7766,1.7783,1.778,1.7797,1.7809,1.7796,1.7557,0,0,0,0,0,1.6856,1.6948,1.7034,1.7151,1.7189,1.7248,1.7304,1.7324,1.7405,1.7437,1.7499,1.7579,1.7676,1.7739,1.7832,1.7981,1.8005,1.8046,1.8059,1.8069,1.8083,1.817,1.8191,1.7973,1.7973,1.7973,0,0,1.6898,1.6966,1.7022,1.7156,1.7217,1.7314,1.7275,1.7378,1.7451,1.7453,1.7584,1.7633,1.7725,1.7868,1.7934,1.7912,1.8149,1.8081,1.8089,1.8098,1.8182,1.8203,1.8221,1.798,1.7979,1.7977,0,0,1.7025,1.7085,1.719,1.7253,1.7347,1.7386,1.7412,1.7506,1.7539,1.767,1.7676,1.7763,1.7928,1.7995,1.805,1.8207,1.8207,1.8236,1.8304,1.8388,1.8405,1.8421,1.848,1.8501,1.8249,1.8249,1.825,0,1.7067,1.7211,1.7244,1.7349,1.7409,1.7416,1.7525,1.7585,1.7704,1.7747,1.772,1.7929,1.7991,1.8152,1.8191,1.8234,1.8267,1.8225,1.84,1.8416,1.8431,1.8488,1.851,1.8253,1.8252,1.8252,1.8252,0,1.7259,1.7359,1.7434,1.755,1.7618,1.7724,1.7776,1.7842,1.7857,1.79,1.8037,1.8112,1.8222,1.8262,1.8277,1.8427,1.841,1.8391,1.8343,1.8454,1.8509,1.8531,1.8257,1.8256,1.8255,1.8254,0,0,1.7401,1.7536,1.7563,1.7618,1.7723,1.7803,1.7911,1.8018,1.8076,1.8159,1.8253,1.8393,1.8378,1.8441,1.8464,1.8537,1.8662,1.851,1.8512,1.8538,1.8836,1.8852,1.8876,1.8661,1.8666,1.8669,1.8829,0,1.7542,1.7733,1.7768,1.7936,1.8031,1.8041,1.8136,1.8212,1.8256,1.8345,1.8393,1.8494,1.8463,1.8502,1.8575,1.8631,1.8722,1.8619,1.8752,1.8756,1.8731,1.8904,1.892,1.9068,1.8851,1.8854,1.8857,0,1.7731,1.782,1.7998,1.8094,1.8136,1.822,1.8324,1.8408,1.8496,1.8523,1.8595,1.8611,1.8726,1.8671,1.8833,1.8763,1.8819,1.8855,1.8862,1.8877,1.8815,1.8927,1.9115,1.9139,1.889,1.8887,1.8885,0,1.7821,1.7985,1.8114,1.816,1.8274,1.8334,1.8385,1.8469,1.8534,1.8625,1.8668,1.8771,1.8828,1.8909,1.8954,1.8909,1.9114,1.9062,1.9143,1.9142,1.9187,1.9184,1.9389,1.9219,1.9218,1.9218,1.9217,0,1.7977,1.8086,1.8156,1.8236,1.8359,1.84,1.8522,1.8572,1.8648,1.8739,1.8753,1.8838,1.889,1.8985,1.902,1.9151,1.9176,1.9204,1.9212,1.9204,1.9201,1.9243,1.9235,1.9224,1.9222,1.9221,1.922,0,1.8098,1.815,1.8291,1.8389,1.8416,1.8504,1.8588,1.8667,1.8712,1.8827,1.8857,1.8928,1.9039,1.9091,1.9229,1.9253,1.9404,1.9404,1.9374,1.9378,1.9457,1.945,1.9699,1.9736,1.9538,1.9539,1.9541,0,1.8195,1.828,1.8387,1.8449,1.8502,1.8601,1.8667,1.8711,1.878,1.8889,1.8956,1.9068,1.916,1.9339,1.9404,1.9511,1.9515,1.9595,1.9531,1.9522,1.9521,1.9516,1.9527,1.9607,1.9609,1.9611,1.9612,0,1.8363,1.8385,1.8479,1.8584,1.8662,1.8747,1.8829,1.888,1.8937,1.9014,1.9129,1.92,1.9343,1.9455,1.9567,1.9622,1.9629,1.9632,1.9657,1.965,1.9631,1.9646,1.9409,1.9626,1.9625,1.9624,1.9623,1.9622,1.8478,1.8555,1.8644,1.8749,1.8817,1.8895,1.8975,1.903,1.9126,1.9245,1.9266,1.9389,1.9479,1.963,1.9689,1.9787,1.9769,1.9804,1.9813,1.9822,1.9829,1.9613,1.9807,1.9807,1.9807,1.9806,1.9806,0,1.8649,1.8707,1.8804,1.8921,1.9005,1.9002,1.9095,1.9166,1.9274,1.9357,1.9448,1.9582,1.9693,1.9767,1.9879,1.9944,1.9951,1.9973,1.997,1.9983,1.9837,1.9805,1.9966,1.9966,1.9966,1.9966,1.9966,1.9966,1.8748,1.888,1.8913,1.908,1.9138,1.9258,1.9312,1.9386,1.9453,1.9601,1.9693,1.9741,1.9822,1.9941,2.0043,2.0062,2.0105,2.0128,2.0147,2.001,1.9993,1.9977,1.9948,2.0136,2.0136,2.0286,2.0288,2.0289]},{"header":{"parameterUnit":"m.s-1","parameterCategory":1,"la1":30.2991,"la2":30.254,"lo1":-89.0895,"lo2":-89.0444,"dy":0.0017,"dx":0.0017,"nx":28,"ny":28,"refTime":"2024-11-26T03:00:00:Z","depth":0,"parameterNumber":3,"parameterNumberName":"V-component_of_WINDS"},"data":[0,0,0,0,0,0,0,0,0,0,0,0,0,0,0,0,0,0,0,0,0,0,0,0,0,0,0,0,0,0,0,0,0,0,0,0,0,0,0,0,0,0,0,0,0,0,0,0,0,0,0,0,0,0,0,0,0,0,-3.5124,-3.5123,0,-3.5031,-3.503,-3.5029,-3.5002,-3.5002,-3.5003,-3.5003,-3.49,-3.4897,-3.4894,0,0,0,0,0,0,0,0,0,0,0,0,0,-3.5272,-3.5269,-3.5124,-3.5123,-3.5122,-3.5031,-3.503,-3.5028,-3.5002,-3.5002,-3.5003,-3.5004,-3.4902,-3.4898,-3.4894,0,0,0,0,0,0,0,0,0,0,0,0,0,-3.5196,-3.5268,-3.5124,-3.5098,-3.5094,-3.5031,-3.503,-3.5028,-3.5002,-3.5002,-3.5003,-3.5004,-3.4903,-3.4898,-3.4893,-3.4848,0,0,-3.4878,-3.4876,0,0,0,0,0,0,0,0,-3.52,-3.519,-3.5103,-3.5099,-3.5096,-3.5029,-3.5044,-3.4967,-3.5001,-3.5037,-3.5003,-3.5004,-3.4942,-3.4934,-3.4915,-3.4843,-3.4838,-3.4878,-3.4875,-3.4873,-3.4872,0,0,0,0,0,0,0,-3.5205,-3.5194,-3.5087,-3.5101,-3.5097,-3.5088,-3.5078,-3.5029,-3.4986,-3.5034,-3.5032,-3.5021,-3.494,-3.4919,-3.4912,-3.4837,-3.4878,-3.4874,-3.4871,-3.4869,-3.472,-3.4719,0,0,0,0,0,0,-3.5216,-3.5199,-3.509,-3.5084,-3.5151,-3.5085,-3.5074,-3.5049,-3.4986,-3.4978,-3.5021,-3.502,-3.4927,-3.4918,-3.4908,-3.4849,-3.4873,-3.4869,-3.4866,-3.4721,-3.472,-3.4719,0,0,0,0,0,0,-3.5219,-3.5207,-3.5094,-3.5141,-3.5126,-3.5081,-3.5054,-3.5047,-3.5026,-3.4977,-3.4968,-3.5008,-3.4927,-3.4915,-3.4863,-3.4845,-3.4866,-3.4862,-3.4723,-3.4721,-3.472,-3.4731,0,0,0,0,0,0,-3.5224,-3.5208,-3.5192,-3.5141,-3.5123,-3.5052,-3.5053,-3.5045,-3.5019,-3.5018,-3.4962,-3.4954,-3.4927,-3.487,-3.4858,-3.4839,-3.4858,-3.4724,-3.4722,-3.472,-3.4732,-3.473,-3.4728,0,0,0,0,0,-3.5229,-3.5198,-3.5191,-3.5178,-3.5103,-3.5051,-3.5041,-3.5013,-3.5018,-3.5,-3.4968,-3.4955,-3.485,-3.4865,-3.4851,-3.483,-3.4725,-3.4723,-3.472,-3.4733,-3.473,-3.4728,0,0,0,0,0,0,-3.5245,-3.519,-3.5183,-3.5134,-3.5098,-3.5047,-3.5023,-3.5012,-3.4971,-3.4972,-3.4937,-3.4924,-3.4874,-3.4847,-3.4866,-3.4781,-3.4787,-3.4781,-3.4801,-3.4798,-3.4796,-3.4803,-3.4854,0,0,0,0,0,-3.5244,-3.5209,-3.5162,-3.5123,-3.5106,-3.5068,-3.5045,-3.5027,-3.4986,-3.497,-3.4934,-3.4894,-3.4851,-3.4823,-3.4781,-3.4729,-3.4714,-3.4707,-3.4705,-3.4704,-3.4699,-3.4666,-3.4662,-3.4711,-3.4711,-3.4711,0,0,-3.5239,-3.5205,-3.5184,-3.5126,-3.5095,-3.5057,-3.5055,-3.5015,-3.4986,-3.4963,-3.4912,-3.4884,-3.4836,-3.4783,-3.4758,-3.4759,-3.4682,-3.4701,-3.47,-3.4696,-3.4663,-3.4659,-3.4655,-3.471,-3.471,-3.471,0,0,-3.5211,-3.5183,-3.5147,-3.5117,-3.5072,-3.5047,-3.5039,-3.4989,-3.4971,-3.4919,-3.4901,-3.4865,-3.4793,-3.4759,-3.4732,-3.4691,-3.4677,-3.4679,-3.4668,-3.4637,-3.4633,-3.4629,-3.4612,-3.4606,-3.4674,-3.4674,-3.4674,0,-3.5209,-3.5154,-3.5129,-3.509,-3.5064,-3.5044,-3.5006,-3.4978,-3.492,-3.4901,-3.4904,-3.4813,-3.4779,-3.4717,-3.4707,-3.4687,-3.4674,-3.4683,-3.4636,-3.4632,-3.4628,-3.4611,-3.4605,-3.4675,-3.4674,-3.4674,-3.4674,0,-3.5154,-3.5116,-3.5092,-3.5039,-3.501,-3.4972,-3.4939,-3.4912,-3.4897,-3.4871,-3.4817,-3.4777,-3.4726,-3.471,-3.4694,-3.4645,-3.4647,-3.4643,-3.4647,-3.4624,-3.4607,-3.4601,-3.4675,-3.4675,-3.4675,-3.4675,0,0,-3.5131,-3.5067,-3.5058,-3.5033,-3.4982,-3.4951,-3.4911,-3.4863,-3.484,-3.4801,-3.4764,-3.4704,-3.4701,-3.4671,-3.4651,-3.4624,-3.4591,-3.4623,-3.4621,-3.4616,-3.4531,-3.4532,-3.4525,-3.4583,-3.4581,-3.458,-3.4534,0,-3.5095,-3.5025,-3.5001,-3.4942,-3.4905,-3.4886,-3.485,-3.4814,-3.4789,-3.4752,-3.4723,-3.468,-3.468,-3.4661,-3.4634,-3.4601,-3.4573,-3.4604,-3.4545,-3.4543,-3.4555,-3.4517,-3.4518,-3.4476,-3.4528,-3.4526,-3.4526,0,-3.5042,-3.5005,-3.4943,-3.4896,-3.4879,-3.4849,-3.4802,-3.4768,-3.4725,-3.4709,-3.4676,-3.4657,-3.4612,-3.4621,-3.4556,-3.4578,-3.4552,-3.4532,-3.4529,-3.452,-3.4531,-3.4504,-3.4462,-3.4455,-3.4516,-3.4516,-3.4517,0,-3.5029,-3.4963,-3.4917,-3.4897,-3.4842,-3.482,-3.4795,-3.4754,-3.4727,-3.4685,-3.4667,-3.462,-3.4594,-3.4557,-3.4525,-3.4536,-3.4462,-3.4469,-3.4444,-3.4444,-3.4427,-3.4428,-3.4378,-3.4415,-3.4416,-3.4416,-3.4416,0,-3.4989,-3.4951,-3.4911,-3.4882,-3.4838,-3.481,-3.4767,-3.474,-3.4704,-3.4667,-3.4648,-3.4614,-3.4576,-3.4536,-3.4511,-3.446,-3.4448,-3.4431,-3.4424,-3.4431,-3.4433,-3.4412,-3.4413,-3.4414,-3.4414,-3.4415,-3.4415,0,-3.4966,-3.4938,-3.4886,-3.4838,-3.4825,-3.4795,-3.4753,-3.4723,-3.4698,-3.4652,-3.4639,-3.4598,-3.455,-3.4516,-3.4454,-3.4437,-3.438,-3.4375,-3.4395,-3.4391,-3.4367,-3.4368,-3.4298,-3.4286,-3.4336,-3.4335,-3.4335,0,-3.4941,-3.4912,-3.4862,-3.4837,-3.4813,-3.4774,-3.4747,-3.4718,-3.4689,-3.4638,-3.4614,-3.4565,-3.4524,-3.4448,-3.4411,-3.4362,-3.4354,-3.4333,-3.4346,-3.4353,-3.435,-3.4351,-3.4346,-3.433,-3.4329,-3.4329,-3.4329,0,-3.4899,-3.4887,-3.4849,-3.4806,-3.4774,-3.4738,-3.4702,-3.4682,-3.4647,-3.4615,-3.4567,-3.4536,-3.4473,-3.4423,-3.4372,-3.4343,-3.4328,-3.4326,-3.4316,-3.4321,-3.4333,-3.4323,-3.4386,-3.4326,-3.4327,-3.4327,-3.4327,-3.4327,-3.4872,-3.4844,-3.4805,-3.4763,-3.4733,-3.47,-3.4669,-3.464,-3.4601,-3.4549,-3.4534,-3.4483,-3.4439,-3.4369,-3.4339,-3.4297,-3.4298,-3.4286,-3.4282,-3.4279,-3.4277,-3.4343,-3.4288,-3.4288,-3.4288,-3.4288,-3.4288,0,-3.4826,-3.48,-3.4762,-3.4713,-3.4679,-3.4673,-3.4632,-3.4603,-3.456,-3.4522,-3.4483,-3.4426,-3.4378,-3.4338,-3.4287,-3.4261,-3.4253,-3.4248,-3.4248,-3.4241,-3.4281,-3.4292,-3.4256,-3.4256,-3.4256,-3.4256,-3.4256,-3.4256,-3.4799,-3.4751,-3.4734,-3.467,-3.4643,-3.4595,-3.4572,-3.454,-3.451,-3.4448,-3.4409,-3.4385,-3.4344,-3.4291,-3.4245,-3.4234,-3.4215,-3.4211,-3.4198,-3.4235,-3.4239,-3.4242,-3.4253,-3.4208,-3.4208,-3.4162,-3.4161,-3.4161]}]]